Theta_e
335 337 336 337 339 340 340 339 340 333 330 332 331 335 336 333 333 332 336 338 339 340 341 337 336 333 331 331 331 333 333 335 335 335 335 334 334 333 335 334 336 338 340 341 339 338 339 340 337 336 336 336 336 335 334 334 335 336 334 335 333 331 331 335 337 335 333 333 333 331 333 335 335 335 334 333 336 334 337 337 338 335 335 336 335
334 336 337 337 338 335 334 337 335 330 330 331 331 332 331 329 326 329 332 335 338 337 333 332 335 331 331 330 331 333 331 331 332 333 333 333 334 334 335 335 336 336 336 336 336 335 335 335 336 336 337 335 335 335 334 335 338 338 337 334 336 332 329 334 335 331 328 325 324 325 329 332 334 332 332 331 334 333 335 335 335 335 335 335 336
330 336 336 331 328 330 336 336 334 330 328 330 329 327 328 328 328 328 331 333 332 332 330 329 334 335 334 332 331 330 333 335 331 331 332 331 335 335 335 334 333 333 333 333 333 333 333 332 332 332 332 332 331 332 334 336 336 336 337 334 332 333 332 333 335 333 330 327 328 325 323 321 327 330 332 331 332 334 333 335 336 333 334 334 334
330 334 328 326 326 324 329 332 333 331 329 327 328 327 328 327 327 328 331 332 332 330 330 331 334 336 337 336 336 335 333 333 333 332 329 330 331 333 334 334 332 331 329 327 330 332 333 332 332 331 332 333 331 330 330 328 332 334 334 334 334 330 329 330 336 335 333 328 322 321 323 321 317 322 326 330 332 333 333 332 333 333 332 332 335
330 328 321 321 321 326 329 328 329 327 327 328 329 327 328 330 330 330 331 332 331 331 330 331 335 335 336 337 336 333 332 329 328 326 329 328 329 331 332 333 331 330 330 329 329 331 332 331 331 331 331 332 331 329 329 329 328 329 331 332 331 330 327 332 335 337 336 336 329 324 319 318 317 323 324 327 333 332 331 331 330 330 333 334 333
327 322 321 321 322 325 326 326 328 328 325 329 332 332 332 332 332 332 334 332 332 331 333 334 336 334 333 330 326 327 326 327 325 322 322 326 326 331 332 331 331 330 329 329 328 329 330 330 331 329 330 331 331 330 329 329 329 329 330 330 329 332 329 331 329 333 336 335 335 331 329 321 318 324 321 317 330 330 330 330 330 332 332 333 333
320 320 320 321 321 322 324 325 329 327 327 329 334 335 334 334 336 337 336 334 332 331 332 335 335 334 332 330 329 327 326 328 328 329 327 326 329 330 330 332 330 330 330 329 329 329 329 330 330 329 329 329 329 330 329 329 328 330 331 332 330 333 332 326 328 328 332 332 334 334 330 329 330 324 319 322 317 326 330 330 329 330 331 329 330
321 321 324 324 323 323 323 325 331 331 330 335 336 336 335 335 337 335 333 332 331 331 333 337 334 333 333 331 330 329 329 327 329 328 329 329 327 328 329 329 329 328 329 327 327 326 327 326 327 329 327 326 325 326 326 328 329 330 331 331 331 331 331 328 330 328 326 326 330 331 331 332 332 332 330 323 320 318 320 327 329 329 329 329 329
321 322 324 326 326 326 327 327 334 334 334 334 330 327 329 330 331 331 330 334 333 333 335 337 336 335 333 331 329 331 330 328 327 327 327 328 328 327 328 328 329 329 327 325 324 324 325 326 326 326 326 325 324 323 326 328 329 330 329 329 329 329 329 329 330 329 328 326 327 328 328 329 329 330 330 326 322 320 318 322 322 326 327 327 329
325 326 326 327 329 331 330 330 333 333 335 331 326 326 326 327 330 332 329 333 335 334 338 337 336 335 331 331 330 327 327 325 326 325 326 328 327 327 326 325 325 326 326 325 324 325 326 326 325 325 325 323 324 326 326 326 326 326 326 327 328 328 328 328 328 328 329 330 328 327 324 326 325 324 326 326 326 324 317 321 323 323 319 323 327
325 327 328 328 331 332 330 329 332 333 334 330 327 326 327 327 330 330 332 336 338 336 333 336 335 334 332 332 329 328 327 326 324 325 325 326 325 325 325 324 325 324 324 325 324 323 325 325 324 323 325 326 325 324 324 323 325 326 326 324 325 326 325 326 327 327 326 325 325 323 322 323 322 319 323 324 323 322 321 322 322 322 319 319 322
328 327 326 328 330 330 330 329 331 332 329 328 329 331 328 329 330 330 331 335 331 326 324 331 335 333 333 332 330 329 328 325 325 325 324 325 325 324 324 323 323 323 324 322 323 324 324 322 323 323 324 324 324 326 326 325 325 324 324 325 326 327 328 326 327 326 326 322 322 321 320 321 322 320 321 322 323 322 321 320 321 320 319 319 320
325 326 327 327 329 329 328 329 330 329 328 330 331 331 331 332 332 331 331 334 328 324 325 329 334 332 331 331 331 330 328 327 326 325 326 325 324 322 322 321 321 321 321 321 323 325 324 323 322 320 321 324 325 323 324 324 323 323 324 324 324 323 322 324 322 324 324 323 321 321 319 318 319 321 322 322 323 324 321 317 317 319 316 317 318
325 325 326 326 328 329 329 328 329 330 330 330 332 332 332 331 333 333 333 334 332 328 326 329 334 333 332 331 331 330 328 327 326 326 326 325 324 322 322 321 321 322 321 322 323 324 323 323 323 323 321 322 322 323 324 324 323 320 323 323 323 323 324 324 323 323 323 323 322 318 318 318 318 319 321 322 322 321 320 318 318 318 318 314 316
324 324 325 326 327 329 329 329 329 330 331 332 332 333 333 333 332 334 334 334 334 333 330 335 334 332 331 331 331 331 328 326 325 326 327 325 324 323 323 323 322 322 322 324 324 324 324 324 323 323 322 322 322 322 322 323 322 319 320 322 320 321 321 320 319 322 321 321 322 319 318 318 317 316 316 319 322 323 322 321 318 314 314 314 312
322 323 325 327 328 329 328 329 328 329 329 331 331 332 333 333 333 334 333 332 333 333 332 334 333 333 331 331 331 331 329 328 326 326 327 326 325 324 324 325 323 323 323 324 324 325 323 323 324 324 322 322 322 322 322 322 322 320 319 321 320 318 320 320 319 321 321 321 321 320 318 316 319 318 318 317 318 322 322 321 319 317 312 309 312
323 324 325 326 327 327 327 327 327 328 328 328 329 332 332 331 332 331 332 331 331 330 330 330 328 329 330 331 331 332 331 329 327 328 328 328 326 325 325 324 326 324 324 325 325 325 325 324 324 324 325 323 322 322 322 322 322 321 320 319 319 320 319 318 320 320 320 321 321 320 318 318 319 320 319 319 320 321 322 321 320 317 315 312 309
324 325 326 326 326 327 328 326 327 327 327 328 329 331 332 332 332 331 331 330 329 329 328 330 329 329 329 331 332 332 331 330 330 330 329 327 325 326 327 325 324 324 325 325 326 325 325 324 324 325 326 326 324 323 321 321 322 320 321 320 320 322 320 320 320 319 320 320 320 319 319 318 320 321 319 321 320 318 316 318 317 318 318 314 312
321 322 322 323 323 324 326 326 326 327 327 327 328 329 330 331 330 330 330 330 330 329 328 329 329 329 329 330 331 331 330 329 327 327 327 327 326 326 326 325 325 324 324 325 325 324 324 324 325 325 326 325 325 325 325 323 322 321 321 322 323 321 320 319 320 320 320 320 320 319 319 318 320 320 320 319 320 320 318 314 314 318 318 319 316
317 319 321 322 323 324 325 326 325 326 327 327 327 328 328 328 326 325 326 328 329 329 330 329 330 329 329 330 331 330 330 330 327 325 323 323 323 323 324 325 324 324 324 324 323 323 324 324 324 324 325 325 325 325 325 325 325 325 323 321 322 322 320 320 320 321 318 320 319 317 318 319 320 318 318 319 317 318 319 316 317 317 316 319 316
317 318 319 320 322 324 325 326 324 326 328 328 327 327 328 328 328 325 322 325 327 330 329 329 329 328 331 330 330 329 330 330 329 326 325 324 322 322 323 325 324 323 324 324 323 324 324 324 325 324 325 325 325 325 326 326 325 325 324 323 323 322 320 319 319 318 319 319 318 316 315 317 319 318 317 316 315 316 316 317 318 316 315 318 318
317 319 320 320 321 322 323 323 323 324 325 325 325 325 325 326 326 327 326 327 329 328 328 327 327 327 327 329 329 329 331 331 331 328 324 323 323 322 324 326 323 323 324 323 323 324 324 325 324 324 325 325 326 326 327 327 325 325 325 325 324 322 323 321 322 320 317 319 319 318 316 316 317 317 317 315 315 315 314 313 313 316 314 315 317
318 318 319 320 321 321 320 321 321 322 324 325 325 326 325 325 325 326 326 325 326 326 328 329 327 328 328 329 329 330 332 331 331 328 324 322 324 324 324 325 325 325 324 324 323 324 324 324 324 325 325 325 326 326 328 327 326 326 324 325 325 324 323 323 322 321 321 320 319 318 319 319 319 319 318 317 315 316 315 313 313 314 314 314 314
318 319 318 318 319 320 319 320 318 320 324 325 326 325 326 326 326 325 326 326 327 327 328 327 327 328 330 331 331 331 332 331 331 328 327 324 325 325 325 325 324 326 325 325 325 324 324 324 324 324 324 325 326 327 327 327 326 326 326 325 325 325 325 324 324 323 321 322 323 322 321 321 320 319 319 318 317 318 317 315 315 315 315 315 318
318 319 319 319 319 318 316 317 317 317 322 324 323 325 327 327 327 326 327 327 328 328 327 327 328 328 329 330 331 331 331 329 330 329 328 326 325 325 326 324 323 322 323 324 325 325 324 324 325 323 323 324 325 325 326 326 328 327 327 327 325 325 327 326 326 325 326 325 324 324 324 323 321 320 321 319 320 319 317 316 315 316 317 319 320
321 321 320 321 320 319 319 320 319 320 321 324 326 327 327 327 327 328 326 327 327 328 328 328 328 329 328 330 330 331 332 331 329 329 328 326 325 325 326 324 323 323 324 324 324 323 324 323 325 325 325 324 325 324 325 324 326 327 327 327 326 327 326 326 326 327 325 325 326 323 324 323 323 322 322 321 321 319 317 317 316 316 315 316 318
317 316 318 319 321 322 322 322 322 322 323 325 325 325 326 326 327 327 328 328 328 328 329 328 328 328 327 326 329 331 331 331 332 330 329 329 326 326 324 323 324 324 323 323 323 324 326 326 326 326 326 326 326 326 327 327 327 326 326 326 327 326 327 326 326 325 325 326 325 325 324 325 323 322 322 321 321 321 319 318 317 318 317 315 317
318 317 317 318 319 321 321 322 323 322 324 324 325 325 325 325 325 326 326 327 328 328 328 328 327 324 323 322 326 329 330 330 330 326 323 324 324 327 326 323 324 324 325 326 324 325 327 326 327 326 326 325 326 326 327 327 326 326 326 327 327 327 326 327 327 326 325 325 325 326 326 325 324 324 325 325 323 322 322 320 319 319 319 317 315
315 315 317 315 316 317 317 319 320 321 320 321 321 323 323 323 324 324 325 326 327 327 327 327 326 324 324 323 325 325 324 325 325 326 325 326 327 327 327 327 325 325 328 326 327 326 326 326 326 326 325 327 327 327 327 326 328 326 327 326 327 325 324 323 322 319 324 325 326 326 326 326 324 319 311 313 312 312 323 321 320 319 318 317 316
312 313 314 315 315 316 317 318 318 319 318 318 319 320 321 321 322 323 324 325 326 326 326 325 326 326 326 326 326 325 325 325 324 324 323 326 327 327 324 322 322 324 322 321 321 322 322 323 322 323 326 328 326 321 308 300 303 322 321 324 324 327 325 324 318 321 323 325 326 325 326 319 315 315 313 305 302 303 305 314 319 321 320 317 315
311 312 313 314 315 315 315 315 316 317 318 319 319 318 321 321 322 323 323 324 325 325 325 325 325 325 325 325 325 324 324 324 322 320 323 324 324 326 322 319 319 321 322 322 323 323 325 323 319 319 322 322 324 315 295 294 298 298 320 325 324 324 325 324 322 322 322 323 325 325 328 322 320 316 318 304 303 302 302 299 299 301 304 319 317
310 311 311 312 312 313 313 314 315 316 316 318 319 319 321 321 321 321 323 325 326 325 324 325 324 325 325 324 324 324 324 324 324 322 322 324 324 322 321 321 322 323 323 324 323 322 323 324 323 322 321 320 317 294 294 294 295 296 300 319 324 323 323 321 321 320 321 322 323 322 324 325 326 326 324 321 307 298 298 297 296 297 298 295 294
309 309 309 310 311 312 313 313 313 314 315 318 317 317 316 317 317 319 319 322 321 323 323 324 325 325 325 326 325 323 323 324 325 323 323 323 322 322 321 321 321 322 322 321 321 322 322 323 322 321 320 319 315 291 293 292 295 296 297 305 321 320 318 320 319 319 319 318 317 318 319 320 321 317 318 320 321 313 297 294 296 295 295 295 295
306 308 308 309 310 310 311 312 312 312 313 314 314 313 313 315 315 315 316 318 319 319 319 321 323 324 325 326 325 324 324 325 325 325 324 323 321 320 322 323 322 322 321 323 324 325 324 321 322 321 317 315 314 292 291 291 294 293 295 299 320 318 319 318 318 318 318 318 317 317 316 317 320 322 321 320 317 321 316 314 313 314 313 301 293
299 301 302 305 307 308 308 308 308 310 313 312 311 312 313 313 313 312 313 313 314 314 315 316 317 318 319 318 320 319 320 321 323 323 323 323 322 322 322 321 323 322 322 323 322 321 323 321 318 318 316 314 313 289 292 292 292 293 295 295 319 317 317 318 318 320 319 319 318 319 318 317 318 320 315 308 319 317 317 317 316 315 314 311 310
295 297 300 302 303 303 304 305 307 308 309 310 311 311 311 311 312 311 311 311 311 311 311 313 313 313 313 314 315 315 316 317 318 319 319 320 321 320 321 322 321 322 320 319 319 318 318 317 317 317 314 312 312 290 293 295 293 294 292 314 318 316 317 317 318 318 318 319 320 319 317 318 319 315 300 291 299 313 317 314 313 313 312 310 304
295 298 300 300 301 303 304 304 305 306 306 308 310 311 310 310 309 309 310 311 312 311 310 311 311 312 313 314 314 314 314 315 314 315 315 317 317 317 318 319 318 317 317 316 317 316 316 316 315 315 314 312 314 298 292 293 293 292 296 321 314 315 316 316 316 317 318 316 313 313 319 316 315 311 294 290 292 296 315 313 312 312 312 309 305
300 301 302 301 301 300 302 302 303 304 305 307 308 309 309 308 308 308 308 307 308 309 310 311 312 312 312 312 313 312 312 313 313 313 314 315 315 316 316 316 315 315 314 315 315 314 315 314 314 315 314 312 313 301 291 293 291 292 295 316 315 314 312 313 314 315 316 312 306 299 309 316 313 308 290 291 290 303 314 313 312 311 311 309 308
299 300 300 301 301 302 303 303 302 302 304 306 306 307 308 308 308 308 308 308 309 309 310 310 310 311 311 312 313 313 313 312 312 313 315 313 313 314 314 315 314 314 314 314 314 313 313 313 314 315 312 314 314 305 290 292 291 291 301 317 314 312 312 312 313 312 314 312 307 300 295 298 302 297 289 291 291 301 314 312 310 310 307 308 308
299 300 301 303 302 303 302 302 303 304 305 304 305 306 306 306 307 309 309 308 308 308 308 309 310 311 312 312 312 312 312 312 312 312 314 313 313 313 315 314 315 313 313 312 312 313 312 313 314 315 313 315 314 313 306 290 293 293 292 308 314 311 310 310 310 310 311 310 309 305 298 289 289 289 290 290 291 292 309 311 310 309 308 307 307
299 299 298 299 301 301 300 300 301 302 303 304 303 303 304 305 306 307 306 307 307 308 309 309 310 310 310 310 311 312 313 313 313 312 313 313 312 312 314 313 312 313 313 313 312 312 311 312 313 313 312 313 315 313 308 289 290 291 292 296 314 312 311 311 310 309 310 309 307 305 302 291 289 290 290 290 291 291 294 307 305 304 301 299 298
300 299 299 298 298 300 300 300 301 302 302 302 302 301 301 302 303 304 306 307 307 307 308 308 308 309 309 310 310 311 313 314 314 314 314 313 313 314 314 312 310 311 311 311 311 310 310 310 312 312 312 313 315 310 313 293 290 293 293 291 309 315 310 309 308 309 308 309 307 305 302 293 289 290 290 290 291 292 293 302 297 289 289 289 302
299 298 298 297 297 298 298 299 300 301 302 302 301 301 301 302 302 303 306 306 306 306 306 307 307 307 308 309 310 311 311 312 313 313 314 313 314 314 314 313 312 311 310 310 310 309 309 309 309 309 311 312 315 311 302 306 291 294 291 292 289 304 296 314 308 308 308 308 306 303 296 290 289 289 289 289 290 290 294 295 288 289 290 287 291
297 297 298 297 297 297 298 299 300 301 301 302 301 300 301 301 301 304 305 305 304 304 305 305 305 306 306 307 308 309 310 311 311 312 312 313 312 311 312 312 311 310 309 309 308 309 308 307 307 308 309 310 312 312 300 300 299 291 291 291 292 291 293 310 313 309 309 308 306 302 296 288 289 288 288 289 289 291 293 287 288 288 288 289 296
295 296 297 296 295 296 297 297 299 300 300 301 301 300 300 300 302 303 303 303 303 303 303 303 304 304 305 306 307 307 308 309 310 310 310 310 310 311 309 310 311 309 309 308 308 308 308 308 307 307 308 309 310 309 310 300 293 290 290 290 290 291 290 292 312 310 308 306 295 289 288 288 288 288 287 288 289 288 287 287 287 288 290 296 299
295 296 296 295 296 296 296 297 297 299 299 300 300 300 299 300 302 302 302 302 302 302 302 302 303 303 303 303 304 305 306 307 308 308 309 310 310 309 309 309 309 309 309 308 307 307 307 308 307 307 307 308 309 309 309 304 296 294 293 289 290 290 291 291 294 296 290 288 288 288 288 287 288 289 295 298 298 295 289 287 287 289 297 300 299
294 295 295 295 295 295 295 296 295 297 298 299 299 299 300 300 300 301 302 302 302 301 301 302 302 302 302 302 302 302 304 306 307 307 307 308 307 309 309 308 309 307 308 309 310 307 308 307 308 306 307 307 307 309 309 306 304 304 303 298 299 297 291 293 297 295 293 293 291 292 293 291 292 290 291 292 294 291 292 292 295 297 300 300 298
295 295 295 295 295 295 295 295 295 297 297 298 298 298 299 300 300 301 301 300 299 299 300 300 301 302 302 302 302 295 299 303 304 305 306 308 308 308 307 308 307 308 308 308 309 306 305 306 308 307 306 305 306 306 308 307 306 306 306 305 306 303 304 306 303 302 300 297 296 291 292 296 298 297 296 298 297 298 298 297 299 299 299 298 296
294 295 295 295 295 295 295 295 296 297 297 297 297 298 298 299 299 299 299 299 298 297 298 299 300 300 300 301 301 301 301 301 301 303 304 304 304 305 306 308 309 312 312 309 308 310 308 309 310 306 304 307 306 304 307 301 308 298 302 306 306 305 306 307 301 296 300 299 296 297 296 298 297 295 296 298 300 299 297 298 300 299 299 300 300
295 295 295 295 296 296 296 295 296 297 297 296 297 297 297 298 298 298 298 297 297 297 297 297 298 299 300 300 301 300 301 300 300 300 302 303 296 297 307 309 311 291 287 292 299 308 311 310 308 307 306 305 304 304 292 292 293 292 291 293 296 297 298 302 295 293 297 298 296 297 296 297 296 297 296 295 295 296 294 294 295 292 294 297 296
294 295 295 295 295 295 295 295 295 296 296 296 296 297 297 297 297 297 297 297 297 295 295 296 297 298 297 299 300 300 301 301 301 301 301 300 302 304 286 288 293 292 291 288 287 287 287 291 305 306 298 291 291 290 291 291 291 290 290 290 290 291 291 291 292 296 298 298 297 297 297 298 297 297 295 293 293 294 293 293 294 295 295 295 293
Wind_Speed
11 12 13 13 12 9 6 8 7 10 7 7 5 5 7 8 8 6 5 6 6 6 4 1 2 4 4 5 5 5 5 5 5 5 5 5 6 6 5 5 4 4 4 4 4 3 3 4 4 2 4 2 2 1 1 6 7 5 5 3 4 6 4 4 3 5 4 2 4 4 2 5 3 3 2 5 5 3 2 0 3 7 2 5 4
12 11 11 10 8 9 7 6 6 11 8 9 6 8 9 7 8 5 2 1 5 4 5 3 7 3 5 5 5 5 6 5 5 5 5 5 6 5 5 5 5 5 4 5 4 3 4 3 2 2 1 3 4 6 6 3 3 3 3 4 4 6 5 3 1 2 4 3 1 2 2 2 4 3 3 4 5 6 7 4 2 6 2 4 5
13 11 8 9 6 6 2 4 6 11 9 11 11 11 12 12 11 13 9 7 5 5 6 0 8 5 4 5 5 5 5 5 6 6 6 6 5 6 6 5 5 5 4 3 3 4 3 3 3 2 2 2 2 1 2 2 2 3 3 3 3 5 4 4 3 3 2 1 2 2 1 1 1 3 2 1 2 4 3 6 9 7 3 7 5
12 9 9 11 6 4 3 2 2 11 10 10 10 11 8 9 12 9 9 5 3 2 4 2 10 3 5 5 5 5 7 7 7 6 6 6 6 6 6 4 4 4 3 4 5 6 4 3 3 3 3 2 2 1 1 1 1 2 2 2 4 1 4 2 3 4 3 2 2 2 1 2 4 2 2 1 3 3 4 7 3 6 8 6 2
10 8 17 9 5 2 3 4 3 7 7 10 10 10 7 10 10 11 9 9 7 3 4 4 7 6 6 6 7 8 6 6 6 6 5 6 6 6 5 5 5 5 5 5 6 4 4 4 3 3 3 3 2 2 2 2 2 1 2 3 3 3 4 3 2 1 2 3 2 2 2 3 1 3 2 1 2 3 5 5 8 6 4 4 5
9 17 14 7 4 4 6 7 5 12 8 6 6 10 11 9 11 10 9 8 6 3 3 9 7 7 8 8 8 7 7 6 6 6 6 5 7 6 6 5 6 4 4 4 5 5 3 3 3 3 3 3 3 3 3 3 4 4 5 4 4 3 4 3 2 2 0 1 1 2 3 1 1 3 4 1 1 4 4 5 5 6 4 6 6
17 15 14 14 13 12 10 8 7 14 11 10 9 7 9 9 10 9 9 7 6 4 8 9 8 7 8 8 8 7 7 6 6 5 6 6 6 6 6 6 6 5 6 5 5 5 4 4 2 2 2 3 3 3 4 4 4 5 4 4 5 4 4 3 1 0 3 2 0 2 3 3 2 1 1 2 3 3 4 3 5 6 5 7 6
9 10 14 14 12 11 10 12 10 15 15 13 10 9 7 6 8 10 5 4 7 7 14 10 8 9 9 8 8 8 7 8 7 6 6 6 7 7 6 5 6 6 5 5 5 5 4 3 3 3 3 3 2 4 4 5 5 5 5 6 5 6 6 5 5 3 2 3 3 1 1 1 2 2 3 1 2 1 3 4 5 6 7 6 6
12 10 12 11 12 11 8 10 10 15 13 11 10 11 9 4 5 8 9 7 10 15 13 11 9 9 8 8 8 8 9 8 7 7 6 6 7 6 6 6 6 6 6 6 6 5 5 5 5 5 4 4 4 5 5 6 6 5 6 6 6 6 6 7 6 5 5 4 4 4 1 2 2 3 3 2 1 2 3 3 5 6 7 6 5
11 13 12 11 10 8 8 10 10 13 14 15 14 13 13 9 6 11 14 12 11 13 10 10 9 8 7 8 9 10 8 8 8 8 7 6 7 7 6 6 6 5 6 6 6 6 5 5 5 5 5 6 6 6 5 5 5 5 6 6 6 6 5 6 6 6 5 4 1 2 4 4 3 4 4 4 3 5 1 4 4 6 6 6 5
7 10 10 10 9 8 12 14 12 10 10 10 8 9 9 9 9 7 8 6 6 3 4 7 7 6 7 8 10 10 10 9 9 8 7 7 7 6 6 6 6 6 5 5 6 6 6 6 5 6 5 5 5 6 6 6 5 5 5 7 7 7 5 5 5 6 4 5 5 5 5 3 3 3 3 1 1 4 4 1 5 4 6 7 5
8 10 11 11 11 11 11 13 12 13 13 10 11 8 10 8 8 9 6 6 7 9 4 9 5 6 7 8 9 9 9 8 9 9 9 8 7 7 6 6 6 6 5 5 5 6 5 6 6 6 6 5 5 5 4 4 5 5 5 5 5 6 6 6 7 7 7 5 5 4 3 4 4 5 5 5 4 4 5 3 4 7 7 7 6
11 10 10 10 10 10 11 12 13 15 12 12 12 10 8 10 11 11 9 7 11 8 7 12 6 6 7 8 9 8 8 9 9 9 8 7 7 7 7 7 7 6 6 6 5 5 5 5 5 5 5 5 5 5 5 4 5 5 6 6 6 7 6 7 6 7 7 7 5 5 6 6 6 4 4 5 5 2 3 3 5 5 6 6 7
10 10 9 9 8 9 11 12 11 12 14 13 13 12 10 10 12 12 13 12 11 9 10 11 7 5 7 7 7 7 8 8 8 8 8 7 7 7 7 7 7 7 7 6 5 6 6 6 6 6 6 6 6 5 5 5 4 6 5 6 6 6 6 6 6 7 7 7 6 5 6 6 5 5 5 3 4 3 4 4 5 5 4 6 5
10 9 9 10 11 11 10 11 10 11 14 14 12 11 11 10 11 14 13 13 13 12 10 9 7 5 6 5 6 6 7 7 7 7 7 7 7 7 7 7 7 7 7 6 6 7 6 6 6 6 6 6 5 5 5 5 5 6 6 5 5 5 6 5 6 7 6 7 7 6 5 5 6 6 5 7 5 4 4 3 3 4 2 2 4
9 10 11 12 10 10 10 8 9 7 9 8 10 9 9 10 11 12 14 13 11 11 9 7 7 5 1 5 5 6 6 7 7 7 6 6 7 7 7 7 7 8 8 7 7 6 7 7 6 6 6 6 5 5 5 5 5 5 5 5 5 4 5 6 5 6 6 7 7 6 5 6 5 6 6 5 5 3 5 3 2 1 3 4 3
10 11 12 12 9 8 8 10 9 9 7 7 8 7 8 10 10 11 12 12 11 9 8 6 7 5 2 2 3 4 5 6 7 8 7 6 6 6 6 7 8 8 8 8 7 7 6 6 6 6 6 6 6 5 5 5 5 5 5 6 6 6 6 6 5 5 6 5 5 6 5 6 5 5 6 6 5 5 4 3 3 3 2 2 3
12 13 13 11 8 7 7 9 11 9 10 10 9 7 7 7 8 9 10 11 10 8 7 7 7 6 4 3 4 4 5 6 7 8 8 7 7 6 5 7 7 7 8 8 8 8 6 7 6 6 6 5 5 5 6 5 5 5 5 5 5 5 5 5 5 5 5 5 6 6 6 6 5 5 5 5 5 4 4 3 3 2 3 3 2
12 12 12 11 9 8 7 9 10 9 9 10 10 9 7 3 2 4 4 7 9 8 7 6 8 6 6 6 6 5 5 6 7 7 8 8 8 7 7 6 7 7 8 8 8 8 7 6 6 7 6 6 6 6 4 5 5 5 4 4 3 4 5 5 5 4 4 5 5 5 4 5 4 4 5 5 5 5 4 2 3 4 4 5 5
11 11 11 10 9 8 7 8 10 10 11 9 9 7 9 7 8 7 4 4 6 9 8 6 6 6 7 7 7 7 7 7 8 8 7 8 8 9 9 7 7 6 7 8 8 8 8 7 7 6 7 6 6 6 5 5 4 4 4 4 3 3 4 4 4 2 3 3 3 5 5 5 5 3 4 3 4 4 5 4 3 2 3 3 2
11 11 11 10 10 9 8 9 9 10 9 8 8 9 8 7 10 14 12 11 9 9 9 6 4 4 7 9 8 8 9 8 9 9 8 8 8 8 8 7 7 7 7 8 9 9 9 8 7 7 7 7 6 6 5 4 4 3 4 4 3 2 3 4 4 3 2 3 3 3 4 3 3 4 2 2 3 3 3 3 4 3 3 1 3
10 10 10 10 11 10 9 8 9 10 10 9 9 8 8 8 9 10 11 11 11 10 10 9 9 8 12 11 11 10 10 8 9 9 8 9 9 8 8 7 8 8 8 8 9 8 8 8 8 8 7 7 7 7 6 5 5 5 4 2 3 2 2 4 1 2 4 1 1 2 4 4 3 4 4 6 4 3 2 2 3 3 4 3 4
9 9 9 9 8 8 8 9 9 10 9 9 9 8 8 7 7 8 8 8 8 9 10 11 12 12 12 11 11 10 9 9 9 9 9 10 9 9 9 9 8 8 8 8 9 9 8 8 8 7 8 7 7 6 5 5 6 6 6 4 3 3 3 3 2 1 3 4 2 1 1 2 1 1 3 4 2 3 6 4 3 3 5 4 3
8 8 7 7 6 5 6 7 9 8 7 7 8 8 8 7 7 8 8 9 9 8 8 9 10 11 11 10 10 9 9 7 9 8 10 10 9 9 10 9 9 8 9 8 9 10 10 9 8 8 7 7 7 7 6 6 6 7 5 5 4 4 5 4 3 3 2 2 2 1 1 1 2 1 1 2 1 2 2 4 1 4 1 2 3
9 8 8 6 7 6 6 6 7 8 7 8 8 7 8 8 6 6 6 7 7 6 7 7 8 10 10 10 10 8 9 10 9 9 11 11 10 9 9 10 9 9 9 8 8 9 9 8 7 8 7 6 6 6 6 5 6 5 5 5 5 5 5 5 5 4 2 3 2 3 1 1 1 2 1 2 1 3 4 4 3 4 2 2 2
9 8 6 6 6 6 5 5 5 5 6 6 6 6 6 6 7 6 6 6 6 6 5 6 6 6 6 8 8 8 8 10 11 11 11 9 8 9 9 8 9 10 9 9 9 8 8 9 8 7 8 7 6 3 4 8 6 4 4 4 4 4 5 6 5 5 5 4 2 3 4 5 2 2 3 2 1 2 2 3 4 6 9 4 1
11 10 8 9 8 8 8 6 6 6 5 5 5 6 6 6 6 6 6 6 6 6 6 6 4 4 3 2 6 7 6 7 6 4 7 4 5 8 9 9 8 9 10 9 8 9 7 8 8 7 7 7 7 9 10 6 6 6 6 5 6 5 6 5 6 6 6 7 8 5 4 5 4 3 4 3 2 2 3 2 1 2 6 7 2
9 10 10 9 9 8 8 8 7 7 6 5 4 5 5 5 6 5 4 5 5 6 7 7 7 4 7 7 5 3 4 6 5 7 8 4 6 4 5 9 9 10 10 9 9 9 8 8 7 8 6 7 6 4 5 6 5 5 4 6 6 6 5 4 5 5 4 3 3 3 4 5 4 1 3 2 2 4 4 3 4 4 3 3 3
10 10 10 9 9 8 8 7 7 7 7 6 5 6 5 4 5 5 4 4 3 4 5 7 8 8 6 6 7 6 1 3 5 6 8 8 5 4 4 7 4 5 0 1 7 5 7 7 7 6 6 5 5 2 6 6 4 2 4 4 5 4 7 5 4 2 4 2 1 2 3 5 4 5 4 4 6 5 2 4 4 4 4 4 5
10 10 10 9 9 9 8 10 8 7 8 8 6 6 5 5 5 5 6 6 5 4 5 5 6 8 6 6 6 5 7 6 6 1 2 3 5 3 6 5 8 8 6 2 2 3 5 4 7 7 1 0 5 5 4 7 7 2 4 6 4 5 4 2 4 3 1 3 3 3 2 9 6 3 4 3 5 5 4 4 5 3 5 4 4
10 9 9 9 9 9 8 7 8 7 7 6 7 6 5 5 5 5 5 4 4 6 5 5 6 8 10 9 8 7 6 6 9 8 6 7 6 5 4 3 5 3 3 2 3 2 1 1 4 5 4 2 5 2 5 8 7 7 1 4 2 4 3 2 7 2 2 1 2 3 4 6 4 3 1 2 3 2 1 4 5 4 5 3 5
9 9 9 8 8 8 8 7 8 9 8 7 6 6 5 5 5 5 4 4 4 5 5 6 6 6 7 7 7 7 5 6 7 7 6 5 5 4 4 4 3 4 2 1 2 3 4 2 2 3 4 4 3 4 6 5 6 6 5 5 1 1 0 0 4 6 5 4 3 2 3 3 3 2 1 7 6 6 4 4 4 6 4 5 6
9 10 11 10 9 9 8 7 5 6 9 8 7 7 7 6 4 4 5 5 6 6 6 5 6 5 6 5 6 6 7 4 5 7 6 5 4 3 4 4 3 0 1 2 4 6 5 3 3 3 4 6 5 4 3 2 2 4 6 7 1 2 2 2 2 1 2 2 2 3 4 3 5 4 4 2 5 7 6 7 5 5 4 3 2
12 12 11 9 9 9 9 9 10 9 9 8 8 7 6 5 6 6 5 5 6 6 6 6 5 6 5 5 5 5 5 5 4 4 5 6 6 7 4 4 6 7 7 7 6 3 2 1 5 8 8 8 6 3 3 1 2 3 5 6 2 1 2 2 2 2 1 1 1 2 1 1 4 2 0 2 0 7 5 4 3 3 3 4 3
14 13 11 10 9 9 11 11 11 10 9 8 8 6 6 6 6 6 5 5 6 7 6 6 6 5 6 6 6 6 6 5 5 5 4 4 4 2 8 7 5 5 6 5 5 6 4 6 7 7 8 7 4 3 3 2 2 3 4 7 0 0 1 2 1 2 1 2 2 2 3 3 3 4 6 7 5 1 2 1 2 2 2 2 3
10 11 12 10 10 11 11 10 9 9 9 9 9 8 8 7 6 5 5 5 6 6 7 5 5 5 5 5 5 5 5 5 6 5 6 5 6 7 6 5 5 4 5 7 7 7 7 6 5 6 7 7 4 3 3 1 2 3 5 5 2 2 2 2 3 2 2 3 4 3 1 3 4 5 7 10 8 7 1 1 2 3 4 4 5
5 7 11 13 13 10 9 9 10 10 10 9 8 6 6 7 8 8 8 7 6 6 6 5 4 5 5 4 4 4 3 3 3 5 6 6 6 6 6 6 7 6 6 6 6 6 6 6 6 7 7 7 5 3 1 1 4 4 5 5 3 2 4 2 2 2 4 7 7 7 4 3 6 6 7 9 10 9 3 2 3 4 4 5 4
10 9 9 10 10 13 14 13 12 12 12 10 9 4 3 3 4 3 3 5 5 6 5 5 5 4 3 3 3 3 2 2 2 3 4 3 4 4 5 4 5 6 6 5 5 5 5 5 6 7 8 7 6 4 4 3 6 4 4 6 4 3 3 2 2 2 6 6 9 13 13 6 7 6 7 10 10 8 6 4 3 4 6 4 5
9 10 10 10 8 8 7 8 9 10 11 11 11 9 5 4 4 3 2 2 2 5 4 2 3 4 4 4 4 3 1 0 2 1 2 3 2 2 2 4 4 4 4 5 5 5 5 5 5 5 7 6 7 5 5 5 6 5 4 5 5 2 3 2 2 3 4 6 6 9 13 11 8 6 9 10 12 10 6 5 3 4 5 4 5
9 9 6 7 3 3 4 5 6 6 4 7 8 7 8 7 6 4 2 5 6 5 5 5 4 3 2 1 1 3 4 4 3 2 3 3 3 3 3 4 3 5 5 5 6 5 6 5 5 5 5 5 8 7 6 6 3 4 3 5 7 3 3 2 4 3 5 6 5 5 8 10 9 9 10 11 11 12 9 6 5 5 5 5 4
10 9 8 7 7 7 7 8 7 8 8 8 8 7 7 6 6 4 5 5 5 5 6 5 5 4 4 4 4 3 4 4 4 5 5 4 4 5 4 4 4 5 4 4 5 5 7 6 5 6 7 6 6 7 5 4 1 3 6 5 5 1 2 2 3 3 5 7 8 6 5 6 7 10 10 11 11 12 11 6 7 5 4 3 6
8 7 7 7 7 6 7 7 7 7 7 7 7 7 6 6 5 4 4 4 5 6 6 6 6 6 5 5 5 5 4 4 5 5 5 5 5 5 5 6 5 6 6 6 6 3 5 6 6 6 7 6 7 7 7 3 3 1 2 5 4 5 7 4 1 3 3 1 10 7 6 5 6 9 9 10 11 11 10 6 5 5 5 8 5
8 8 8 8 7 6 7 7 6 6 6 6 7 7 6 5 6 6 5 6 7 7 7 6 6 6 6 6 6 6 5 5 5 7 6 6 6 6 6 6 7 8 7 8 8 8 8 8 7 6 6 7 7 6 9 7 6 4 2 2 3 4 7 3 4 3 2 7 9 8 8 8 8 8 8 8 7 6 7 5 3 3 2 4 5
8 8 8 8 7 7 7 7 6 6 6 6 6 6 6 7 7 7 7 7 7 7 7 7 7 7 7 8 7 7 7 7 8 8 9 8 7 8 8 8 8 9 8 9 10 11 9 9 9 8 8 7 8 7 6 8 8 7 6 4 4 3 5 3 5 4 4 10 8 9 8 10 9 8 7 8 8 7 5 3 2 3 6 5 5
7 7 8 8 8 8 8 7 6 6 6 6 6 7 8 8 7 7 7 7 8 8 8 8 8 8 8 7 7 8 8 8 8 8 9 10 10 9 9 10 10 9 11 10 10 10 12 10 10 10 10 9 9 9 7 6 8 8 6 6 5 5 5 5 4 3 8 8 13 16 15 10 10 10 11 9 7 5 4 4 6 7 5 5 6
6 6 7 8 8 8 8 8 8 8 7 7 7 7 8 8 8 8 8 8 8 8 8 8 8 8 9 10 10 10 10 10 10 9 10 9 11 12 11 11 12 11 9 10 11 10 10 11 11 11 10 8 8 9 9 7 6 6 6 6 7 8 9 12 11 9 14 17 17 16 14 11 9 8 7 5 4 4 6 7 8 7 6 5 2
6 6 6 6 7 7 7 8 8 8 7 7 8 7 8 8 9 8 9 9 9 9 9 8 9 9 10 11 11 10 10 10 10 10 10 11 10 10 11 12 11 11 12 10 9 11 9 7 10 10 9 8 7 6 7 8 8 7 6 6 7 7 12 13 10 8 10 9 11 10 8 7 5 7 3 4 5 6 5 6 6 7 5 1 1
5 6 6 7 7 7 8 8 8 7 7 8 8 8 8 9 9 9 9 10 10 10 10 10 10 10 9 9 10 9 10 10 10 10 10 10 10 10 10 8 12 10 7 7 11 12 9 9 10 9 7 8 10 9 10 9 10 9 8 8 8 8 8 7 8 8 8 9 8 8 7 5 5 5 6 5 5 6 7 4 3 2 1 2 0
7 6 6 7 8 8 8 8 8 7 7 7 8 8 8 9 9 9 9 10 10 11 11 11 11 10 11 11 10 11 11 11 11 12 12 12 13 12 13 13 6 2 4 8 9 3 3 8 11 9 6 2 2 11 7 8 8 6 5 8 9 7 8 8 9 12 10 8 6 7 7 6 6 4 4 5 5 3 0 1 2 3 3 3 3
8 8 8 9 8 8 9 10 9 9 9 9 8 7 7 8 8 8 8 9 10 10 11 11 10 10 10 10 10 11 12 12 12 12 12 12 7 4 2 4 2 3 6 4 3 6 3 5 3 5 2 6 7 4 7 15 13 12 11 9 6 6 4 10 15 16 10 6 5 5 5 5 4 3 3 3 2 1 1 1 1 2 4 2 2
9 9 8 8 9 9 11 12 11 10 10 10 10 11 11 11 10 11 12 11 11 10 9 10 9 9 10 10 10 10 10 11 11 12 12 13 11 5 8 10 11 10 6 7 9 8 7 6 6 7 6 10 11 9 11 11 12 11 11 10 11 13 17 18 16 9 6 5 5 5 4 4 3 3 3 2 1 1 2 2 1 0 1 1 1
Wind_Direction
191 194 185 186 167 153 138 141 164 109 134 101 156 116 87 100 127 101 131 153 151 151 141 133 184 135 143 157 139 124 114 118 103 98 88 71 78 96 106 98 96 104 112 114 117 132 140 155 133 208 113 188 134 153 211 226 225 213 223 162 214 231 246 259 239 261 283 205 3 324 45 349 331 321 316 314 335 320 283 81 86 89 124 107 139
196 193 193 168 149 116 165 160 151 130 123 127 83 77 80 81 94 58 12 146 152 114 60 18 268 161 177 151 135 137 133 129 108 91 88 96 87 82 73 91 107 103 85 79 78 83 91 92 89 84 63 126 169 161 198 202 206 218 238 225 206 210 200 243 350 26 262 346 41 325 323 302 355 322 318 320 352 327 324 316 140 113 126 102 121
199 192 175 110 79 143 101 152 162 128 131 116 103 101 133 146 156 156 172 175 174 126 120 180 266 188 177 131 141 132 113 109 107 106 109 103 95 90 83 77 67 78 89 96 99 85 66 68 84 95 73 84 111 125 152 186 217 231 218 228 231 234 162 180 197 256 265 137 247 244 253 339 17 301 267 50 318 318 7 290 15 78 95 51 40
203 185 96 67 74 39 219 106 239 105 117 133 144 157 146 160 166 144 128 141 137 142 119 184 258 152 110 138 120 111 107 92 101 102 101 114 105 91 95 103 111 107 112 101 69 56 47 50 64 57 57 61 52 71 110 139 264 288 253 271 288 349 23 286 214 199 254 271 240 282 28 77 301 213 222 94 8 358 344 35 124 50 63 65 96
192 122 76 83 120 142 102 132 151 128 121 161 158 152 170 165 141 137 153 158 155 172 122 213 222 141 132 116 101 107 122 129 131 124 115 106 111 111 105 114 98 79 60 69 77 60 43 43 35 67 66 49 40 68 68 54 20 339 27 334 319 347 213 167 170 215 196 256 269 262 209 181 304 360 206 100 19 28 35 49 65 87 86 108 112
74 81 100 118 151 157 182 176 166 120 164 184 171 162 156 146 147 154 156 139 140 164 176 211 176 159 147 142 142 144 136 146 125 123 138 134 103 113 118 108 102 114 88 65 70 80 72 64 42 46 57 53 48 31 48 47 44 12 19 4 353 10 342 273 150 134 206 98 15 192 347 53 92 252 299 143 100 80 46 71 62 87 103 93 95
101 119 147 167 180 182 186 156 155 129 157 181 196 160 139 141 149 148 134 129 132 115 234 206 178 165 162 154 149 144 133 112 105 103 101 106 114 99 96 96 99 80 78 82 57 61 42 43 27 66 94 117 82 52 44 28 25 37 20 20 20 7 13 320 25 313 127 152 142 38 72 298 93 261 183 187 185 107 84 90 65 89 110 97 114
122 177 160 170 180 199 170 157 160 143 158 164 158 139 130 109 131 109 92 142 146 161 218 196 183 169 166 152 143 136 121 117 119 108 106 109 111 117 110 104 97 101 97 95 102 78 68 74 61 25 15 31 80 70 48 44 26 32 33 32 25 25 23 18 358 1 20 32 330 1 334 165 260 265 214 290 3 172 130 69 83 79 80 70 62
147 153 153 170 182 189 149 158 155 140 141 131 79 66 65 93 135 149 164 180 169 194 198 191 181 172 161 152 143 119 123 127 127 127 118 115 122 118 104 93 82 85 87 80 72 83 87 68 55 48 22 29 67 85 62 58 51 40 37 38 33 30 27 16 15 18 24 63 8 328 318 331 327 310 303 106 30 260 96 114 100 98 83 76 73
167 155 158 176 180 155 125 145 150 142 133 121 137 146 156 168 164 160 171 186 191 191 189 190 172 173 154 147 131 131 134 132 130 126 126 128 114 113 121 119 116 105 87 72 77 75 72 81 74 62 55 52 59 67 82 71 52 50 43 38 30 47 37 34 31 20 25 46 62 14 10 17 43 45 312 349 143 50 44 135 115 101 92 81 97
167 151 147 159 159 128 144 149 143 141 127 121 129 147 146 147 145 151 166 184 161 63 285 192 181 171 144 140 135 136 136 133 131 134 133 133 130 132 124 121 116 110 107 97 89 86 74 65 71 78 69 48 52 63 56 63 69 57 53 51 50 39 49 52 52 40 36 35 16 31 27 67 352 354 73 162 19 72 69 45 80 117 110 107 86
163 151 148 142 149 153 142 152 150 126 111 132 161 159 151 154 152 151 161 134 111 128 270 262 207 163 139 140 139 138 141 141 140 137 139 138 138 129 120 121 121 120 115 107 100 95 91 88 81 72 64 64 63 47 61 78 67 64 50 51 52 49 41 45 42 35 22 44 38 12 30 27 23 7 21 15 92 137 158 159 192 143 118 111 120
160 158 146 148 149 154 158 153 141 123 133 153 170 171 160 156 156 148 158 139 144 152 162 248 207 166 147 145 140 146 146 142 140 139 142 144 146 135 138 132 133 133 122 117 116 110 97 86 81 79 76 62 56 74 69 65 74 67 68 65 52 52 52 42 49 43 34 19 19 28 18 28 29 34 23 27 31 59 137 109 106 106 107 123 137
158 146 141 142 143 148 150 146 153 150 150 162 174 168 167 170 161 157 158 155 153 163 157 218 178 166 147 144 144 152 147 144 142 142 147 148 145 145 145 141 136 128 128 124 120 111 98 91 88 87 85 85 82 71 57 42 65 88 74 61 62 56 45 51 52 48 40 33 20 40 23 33 26 28 8 20 68 49 67 82 90 95 132 120 126
140 142 146 151 152 152 149 149 154 167 163 166 172 174 160 172 170 159 156 164 167 157 182 177 137 160 155 151 154 161 150 148 143 145 149 148 148 155 145 143 136 136 129 120 113 112 119 109 102 97 93 92 87 86 80 67 57 70 75 67 68 59 57 61 57 45 47 38 31 19 43 48 16 22 45 4 60 63 65 71 98 115 104 105 103
155 154 151 149 155 164 163 150 146 152 157 161 168 164 169 170 172 167 156 159 156 144 147 122 109 95 105 162 161 164 156 147 141 146 143 146 149 150 145 144 143 134 130 132 129 124 120 125 118 105 99 99 92 85 84 81 71 78 78 73 70 73 67 59 66 66 48 43 32 20 38 45 30 19 30 39 24 39 108 129 135 186 119 107 76
131 128 130 138 162 155 150 161 153 134 142 162 179 177 166 162 165 161 152 151 150 151 151 128 103 103 73 189 174 171 153 139 135 136 134 131 135 144 153 148 139 141 136 139 137 136 136 126 118 113 106 97 96 98 99 97 92 84 83 79 77 66 70 64 58 58 53 42 34 27 40 39 34 37 24 30 27 2 38 39 22 25 13 175 126
118 125 129 136 157 161 139 152 158 147 144 146 151 170 169 166 164 157 147 151 152 151 149 149 129 145 167 200 184 175 145 132 137 142 140 145 149 152 142 144 152 147 149 143 145 144 140 135 133 131 126 122 115 103 98 99 98 84 79 80 81 87 79 74 67 62 55 53 40 37 38 47 32 23 42 25 30 19 15 30 353 64 346 12 189
112 121 127 136 147 156 150 147 150 141 129 124 130 136 142 144 122 79 118 144 154 145 159 159 155 160 175 193 185 177 166 149 151 150 152 158 157 149 152 156 153 157 154 150 146 149 149 148 146 143 138 138 130 128 128 115 105 105 102 94 75 74 71 74 65 59 62 58 50 48 51 53 32 42 29 36 27 6 348 56 45 355 68 341 3
115 119 125 133 139 139 139 136 146 140 132 123 118 127 138 148 134 132 126 141 174 159 158 156 154 167 185 184 188 185 177 167 159 161 164 164 161 155 154 166 161 163 163 157 153 152 157 155 155 151 151 147 147 146 140 133 130 125 126 98 100 106 105 92 82 57 79 90 89 68 47 34 6 34 60 36 52 33 4 17 45 61 69 4 338
115 117 119 128 132 140 143 144 145 140 122 121 122 126 131 145 144 143 162 175 174 163 153 152 152 202 216 189 182 195 185 172 168 167 167 163 164 160 162 165 164 174 171 169 159 160 161 163 158 160 159 154 153 149 143 147 127 123 96 115 132 131 128 107 111 122 95 63 47 83 95 71 26 18 38 69 37 29 45 32 23 54 70 32 348
114 119 127 131 127 128 126 134 139 135 128 119 123 127 136 142 140 139 153 167 162 162 155 161 158 206 207 193 181 196 184 173 170 167 168 164 168 171 169 175 174 174 179 177 167 162 166 171 164 169 161 161 161 152 154 153 135 131 132 139 140 146 57 89 189 110 94 79 40 13 56 32 23 23 347 330 76 332 301 121 53 13 72 60 349
128 132 136 131 133 134 140 134 135 127 115 122 136 132 131 133 142 150 150 153 160 164 163 167 170 191 200 189 185 187 178 173 168 169 175 173 175 176 177 180 184 173 185 184 170 167 170 177 179 172 174 166 172 151 161 153 148 152 153 150 159 149 146 154 175 199 177 123 152 136 168 109 15 31 353 17 358 328 331 42 39 26 46 17 37
131 137 132 135 134 140 137 131 132 115 125 131 120 124 127 138 154 161 158 158 157 168 162 174 178 188 188 188 181 182 174 169 170 178 176 181 175 180 184 185 187 181 183 186 173 175 174 180 183 184 183 183 172 166 169 166 165 165 160 161 182 174 173 180 186 188 188 169 188 213 154 157 155 186 256 9 301 38 311 32 303 130 186 81 30
142 140 140 147 152 159 157 151 140 144 139 123 133 144 138 141 138 139 155 159 155 162 165 172 181 186 188 190 183 183 178 169 180 192 183 182 180 182 185 189 187 189 185 183 181 187 178 187 186 194 189 183 182 175 184 174 170 175 189 174 191 190 201 199 191 208 150 221 176 218 244 210 205 269 163 248 14 36 358 1 342 336 39 98 311
134 113 126 144 157 162 151 156 150 129 124 117 117 124 115 124 124 131 147 163 156 166 177 176 187 190 188 190 182 181 184 177 184 191 184 184 179 182 185 197 191 192 190 187 189 193 187 197 192 198 200 175 204 117 248 212 203 187 212 206 218 214 212 216 198 209 201 189 227 188 228 238 225 267 271 266 12 24 331 318 2 353 339 320 220
131 138 152 154 145 137 142 141 126 121 127 120 112 106 114 121 136 152 152 156 165 172 174 176 154 144 152 285 199 184 189 184 169 80 22 336 212 194 192 200 194 202 191 198 197 201 188 208 200 201 206 210 186 180 214 197 205 193 209 213 219 229 214 218 220 206 216 168 192 174 248 260 232 241 265 235 209 239 237 252 292 300 251 313 333
129 138 131 119 117 118 123 121 129 128 117 105 120 112 118 124 127 127 133 148 165 167 164 157 143 135 145 176 268 255 169 160 122 117 129 201 278 301 242 211 200 208 199 198 206 209 192 211 210 211 212 210 214 198 213 203 216 232 211 217 217 228 238 228 238 208 206 219 231 221 216 95 352 28 349 342 219 216 213 240 235 238 289 331 311
122 120 119 128 122 125 126 124 118 120 115 119 128 122 114 122 112 121 141 147 175 175 163 157 155 156 165 150 184 181 7 183 123 148 168 183 204 204 255 312 263 222 237 329 284 250 216 202 216 218 221 185 206 89 11 343 294 268 237 214 265 222 233 205 166 36 242 190 228 223 256 126 136 87 70 44 34 32 351 283 234 229 254 272 262
128 125 123 125 124 126 130 125 132 132 135 141 128 113 123 133 131 139 153 152 155 163 163 157 158 146 144 171 164 152 176 180 115 90 319 243 198 136 65 37 352 7 34 6 271 333 343 355 347 302 296 47 60 25 352 2 35 48 314 274 213 246 252 130 69 238 343 244 211 218 158 98 123 113 70 74 66 38 3 360 347 323 269 226 254
123 121 122 126 131 122 120 117 112 113 96 89 119 141 133 122 135 142 134 140 153 150 147 147 138 139 153 167 158 171 156 147 144 178 205 231 217 107 103 140 181 172 234 288 345 2 317 200 158 252 264 308 60 64 359 21 4 1 327 245 172 252 183 188 143 250 206 127 208 184 167 150 147 139 191 184 181 120 351 341 15 19 25 351 233
119 118 115 105 99 105 105 125 138 124 120 114 99 102 112 124 123 106 88 107 130 131 126 122 123 127 131 130 133 136 134 146 156 144 155 203 127 131 191 228 202 186 195 348 292 269 269 197 193 224 50 84 93 49 32 37 354 342 337 301 218 172 120 121 140 165 153 210 158 176 136 143 187 89 216 175 177 162 128 80 58 23 3 33 26
104 102 99 90 91 91 91 79 80 110 131 131 121 104 87 77 64 69 120 137 136 118 103 110 112 118 122 125 132 139 138 147 128 144 170 192 195 147 173 175 226 108 198 230 246 238 233 222 270 102 152 121 110 47 81 28 347 337 325 311 271 44 272 75 61 29 73 135 130 155 160 157 110 123 239 245 142 126 100 88 108 115 87 57 350
54 69 69 71 74 81 79 75 78 75 60 74 76 83 86 87 101 107 100 93 94 115 130 127 130 126 125 125 124 128 137 138 146 151 168 180 167 178 175 184 178 178 194 194 165 151 142 269 224 166 130 110 104 119 126 76 26 314 319 292 15 35 7 60 52 38 44 42 12 334 346 142 133 183 29 33 118 130 133 139 150 207 161 106 105
39 42 47 54 63 55 46 41 41 44 53 65 68 74 83 83 77 75 73 91 102 97 93 94 96 104 120 145 148 143 139 141 149 158 154 156 127 148 173 179 183 182 174 152 172 171 174 176 154 130 114 113 98 99 117 133 191 256 289 309 243 127 170 119 102 79 360 29 349 352 335 353 50 48 36 3 338 313 172 166 161 158 131 132 71
20 16 22 34 47 44 37 33 26 30 35 34 42 41 47 59 62 72 78 74 79 85 89 93 101 102 101 100 103 110 118 146 145 146 138 140 138 159 157 164 155 150 158 156 146 146 155 152 133 122 118 120 114 97 91 78 18 284 335 276 209 166 131 101 95 77 61 59 32 4 330 75 77 68 25 357 357 343 272 197 183 142 122 88 73
80 35 22 12 12 36 51 45 35 26 25 16 6 26 23 27 30 32 38 52 60 74 79 71 70 69 70 82 93 113 101 122 133 139 141 140 143 150 148 159 160 159 162 151 145 152 163 152 146 139 131 127 126 115 130 217 262 291 267 258 223 176 122 119 92 111 90 56 33 1 347 119 90 74 15 360 6 349 293 225 212 197 158 138 135
81 88 76 45 25 18 14 20 27 24 18 12 342 9 54 45 55 46 53 47 29 40 32 43 72 95 103 88 84 85 124 115 152 172 151 144 145 152 153 157 166 159 170 166 161 167 163 163 162 155 152 142 128 116 174 226 258 273 284 286 250 135 79 113 107 85 78 75 45 25 17 66 84 63 14 24 7 343 296 275 221 200 224 190 147
64 52 42 41 44 48 40 30 36 23 1 357 356 7 24 54 54 36 341 109 67 38 27 39 9 4 359 39 7 29 81 125 288 19 113 159 177 174 183 173 194 187 183 173 187 174 173 166 175 143 74 133 139 143 192 224 241 276 299 295 279 182 185 163 155 111 97 83 64 48 39 41 58 51 38 31 19 355 299 258 271 251 251 207 158
64 54 74 127 145 95 74 49 44 43 30 13 4 10 17 13 17 7 31 33 25 359 342 345 338 345 330 296 222 266 302 298 278 254 203 242 254 249 233 220 215 220 196 198 193 189 175 174 153 150 173 173 147 156 158 195 249 296 336 322 297 265 229 164 237 212 139 117 99 86 56 35 50 50 46 36 26 17 7 31 354 353 348 85 101
46 46 23 22 34 32 24 20 25 11 13 13 6 360 1 13 4 38 35 12 355 343 333 334 323 305 291 293 285 259 251 252 263 264 259 232 247 246 222 225 234 242 231 211 219 210 196 199 176 183 178 189 160 158 147 181 169 290 333 347 305 281 238 201 237 172 208 164 141 107 95 44 47 58 56 46 40 28 18 28 24 38 47 351 324
44 43 42 12 3 17 19 12 13 5 5 1 360 351 341 356 337 356 12 345 334 337 323 322 318 315 323 322 318 310 303 277 271 275 252 235 228 218 208 219 230 241 226 206 225 219 215 208 196 197 198 179 132 142 155 175 198 156 321 4 325 19 21 334 297 255 259 225 122 127 120 86 69 71 65 63 54 44 35 60 50 42 4 7 346
18 12 33 10 354 4 3 351 350 354 354 349 347 336 332 327 328 328 334 333 328 320 319 323 322 318 313 306 297 286 279 278 264 260 263 247 227 214 209 219 218 226 223 205 221 226 225 213 209 214 199 183 148 133 150 161 171 168 134 89 9 339 6 304 274 289 286 84 109 106 104 104 94 85 74 69 74 94 81 75 71 24 10 321 293
7 3 12 356 348 351 341 339 335 338 338 337 329 325 323 324 311 321 322 315 309 310 313 310 307 302 298 290 287 277 263 252 256 252 246 244 237 241 230 222 219 224 219 205 209 214 218 235 218 211 212 185 175 175 147 153 157 164 143 134 110 59 9 338 318 292 296 123 127 124 119 123 112 104 92 74 59 53 86 134 237 263 273 280 269
358 351 3 346 340 335 331 326 328 331 327 326 325 313 310 304 308 305 305 304 304 302 297 293 290 286 286 286 281 278 280 278 267 251 244 240 240 234 236 236 233 230 236 233 230 228 229 224 217 206 207 193 186 177 161 144 147 151 151 143 121 90 44 5 287 75 60 90 101 110 123 131 127 121 119 120 108 114 148 204 243 251 255 253 240
347 344 355 337 331 329 322 328 325 327 322 313 308 305 300 299 300 300 296 294 291 288 287 284 283 282 279 276 273 272 267 261 257 259 257 250 243 239 236 235 239 236 235 250 253 251 234 222 224 210 209 197 185 186 170 153 152 146 138 127 119 109 86 63 64 82 97 108 116 123 130 136 140 148 162 174 160 147 203 227 245 252 247 247 295
337 341 332 327 328 322 326 324 319 316 316 311 308 302 298 298 296 297 297 294 293 288 285 280 276 275 272 267 267 263 263 261 258 251 249 252 250 244 243 240 239 247 244 241 255 249 238 231 233 224 200 184 206 183 178 166 172 168 162 143 136 116 114 112 106 112 110 108 120 132 145 162 143 179 278 70 115 147 192 221 230 224 234 315 344
325 315 323 312 312 314 315 314 311 313 310 308 303 302 301 303 303 302 299 295 288 285 282 279 279 279 277 275 269 272 271 264 265 266 264 255 247 253 260 259 251 240 250 268 246 244 247 236 236 228 216 189 183 194 201 182 177 177 170 172 167 156 166 173 150 142 135 131 134 127 140 177 158 187 202 204 203 198 210 211 236 269 251 191 201
316 322 313 307 309 308 305 299 296 296 293 294 293 292 294 295 297 295 293 291 290 288 282 276 274 273 271 271 272 269 263 259 253 247 243 249 257 250 246 243 260 302 236 230 263 308 37 332 293 274 262 243 244 237 199 122 164 133 151 177 169 175 183 184 145 134 132 146 150 163 175 188 188 201 206 218 214 217 220 219 187 278 291 247 237
326 322 316 310 303 302 301 301 302 307 304 297 293 291 293 291 287 287 293 294 291 287 285 282 275 270 267 265 263 260 258 255 254 254 254 251 222 205 215 253 194 71 67 60 157 237 206 144 25 345 39 83 70 30 74 107 107 97 78 74 112 134 147 121 123 137 150 157 172 182 189 196 204 196 213 217 218 220 216 240 187 122 261 291 351
319 313 308 309 309 303 301 306 309 307 303 299 295 294 290 290 292 289 283 278 274 278 290 288 282 271 269 270 267 264 262 260 257 253 250 249 249 178 82 75 94 122 113 95 88 88 76 63 183 153 62 66 106 86 76 92 95 97 100 104 106 109 117 127 134 139 177 179 179 197 192 205 208 211 213 209 183 211 224 229 232 239 260 200 233